Location: Caltech
(34.1382°N, 118.1253°W)
Time: 03:14:52
(UTC-07:00)

HO-68 - Visible Passes

Search period start: 28 September 2016 00:00
Search period end: 08 October 2016 00:00
Orbit: 1192 x 1205 km, 100.1° (Epoch: 26 September)

Date Brightness Start Highest point End Pass type
(mag) Time Alt. Az. Time Alt. Az. Time Alt. Az.
28 Sep ? 19:42:02 10° SSE 19:49:06 64° ENE 19:56:10 10° N visible
28 Sep ? 21:32:15 10° SW 21:37:12 20° W 21:42:10 10° NW visible
29 Sep ? 19:25:29 10° SE 19:32:17 48° ENE 19:39:05 10° N visible
29 Sep ? 21:14:14 10° SSW 21:20:07 27° W 21:26:02 10° NW visible
30 Sep ? 19:09:06 10° SE 19:15:30 37° ENE 19:21:54 10° N visible
30 Sep ? 20:56:36 10° SSW 21:03:05 37° W 21:09:37 10° NNW visible
01 Oct ? 18:52:57 10° ESE 18:58:46 28° ENE 19:04:35 10° N visible
01 Oct ? 20:39:12 10° S 20:46:05 50° W 20:53:00 10° NNW visible
02 Oct ? 20:22:01 10° S 20:29:08 67° WSW 20:36:16 10° NNW visible
03 Oct ? 20:05:02 10° SSE 20:12:13 87° WSW 20:19:25 10° NNW visible
03 Oct ? 21:58:21 10° WSW 22:00:41 12° W 22:03:01 10° WNW visible
04 Oct ? 19:48:13 10° SSE 19:55:20 72° ENE 20:02:28 10° N visible
04 Oct ? 21:39:08 10° SW 21:43:32 17° W 21:47:58 10° NW visible
05 Oct ? 19:31:35 10° SE 19:38:29 54° ENE 19:45:25 10° N visible
05 Oct ? 21:20:55 10° SSW 21:26:26 24° W 21:32:01 10° NW visible
06 Oct ? 19:15:08 10° SE 19:21:42 41° ENE 19:28:17 10° N visible
06 Oct ? 21:03:08 10° SSW 21:09:24 33° W 21:15:42 10° NW visible
07 Oct ? 18:58:52 10° ESE 19:04:57 31° ENE 19:11:01 10° N visible
07 Oct ? 20:45:39 10° S 20:52:23 44° W 20:59:09 10° NNW visible
